Location: Härggis
(46.9540°N, 8.4897°E)
Time: 13:32:53
(UTC+00:00)

S3M - Visible Passes

Search period start: 26 September 2022 00:00
Search period end: 06 October 2022 00:00
Orbit: 950 x 1003 km, 83.0° (Epoch: 25 September)

Date Brightness Start Highest point End Pass type
(mag) Time Alt. Az. Time Alt. Az. Time Alt. Az.
26 Sep 5.2 19:29:34 10° NNE 19:33:58 25° NE 19:33:58 25° NE visible
26 Sep 5.0 21:14:26 10° NNW 21:18:39 41° NW 21:18:39 41° NW visible
27 Sep 4.7 19:54:51 10° N 19:59:36 39° NE 19:59:36 39° NE visible
27 Sep 5.6 21:40:33 10° NNW 21:44:17 29° NW 21:44:17 29° NW visible
28 Sep 5.7 18:37:03 10° NNE 18:40:05 14° ENE 18:40:33 14° ENE visible
28 Sep 4.4 20:20:25 10° N 20:25:14 53° NNE 20:25:14 53° NNE visible
28 Sep 6.2 22:07:07 10° NW 22:09:56 18° WNW 22:09:56 18° WNW visible
29 Sep 5.2 19:01:34 10° NNE 19:06:13 23° ENE 19:06:13 23° ENE visible
29 Sep 4.7 20:46:13 10° NNW 20:50:54 50° NW 20:50:54 50° NW visible
29 Sep 6.6 22:35:31 10° WNW 22:35:36 10° WNW 22:35:36 10° WNW visible
30 Sep 4.6 19:26:46 10° N 19:31:54 37° ENE 19:31:54 37° ENE visible
30 Sep 5.3 21:12:16 10° NNW 21:16:35 34° WNW 21:16:35 34° WNW visible
01 Oct 5.7 18:09:28 10° NE 18:11:43 12° ENE 18:12:55 11° ENE visible
01 Oct 4.2 19:52:16 10° N 19:57:36 58° NE 19:57:36 58° NE visible
01 Oct 6.0 21:38:42 10° NNW 21:42:18 21° WNW 21:42:18 21° WNW visible
02 Oct 5.2 18:33:35 10° NNE 18:38:06 20° ENE 18:38:38 20° ENE visible
02 Oct 4.3 20:18:00 10° NNW 20:23:20 64° NW 20:23:20 64° NW visible
02 Oct 6.5 22:06:12 10° NW 22:08:01 12° WNW 22:08:01 12° WNW visible
03 Oct 4.6 18:58:41 10° N 19:04:17 34° ENE 19:04:23 34° ENE visible
03 Oct 5.0 20:43:59 10° NNW 20:49:04 41° WNW 20:49:04 41° WNW visible
04 Oct 5.8 17:42:30 10° NE 17:43:19 10° NE 17:44:09 10° ENE visible
04 Oct 4.0 19:24:07 10° N 19:30:09 57° ENE 19:30:09 57° ENE visible
04 Oct 5.7 21:10:18 10° NNW 21:14:52 25° WNW 21:14:52 25° WNW visible
05 Oct 5.3 18:05:39 10° NNE 18:09:46 18° ENE 18:11:16 17° E visible
05 Oct 3.9 19:49:48 10° N 19:55:58 84° WNW 19:55:58 84° WNW visible
05 Oct 6.4 21:37:23 10° NW 21:40:25 14° WNW 21:40:41 14° W visible
